La Mercy, South Africa

6:55 AM SAST on April 29, 2017 (GMT +0200)
La Mercy

Weather History for FALE - December, 2011

Change the Weather History Date:

Saturday, December 3, 2011

  Actual Average Record
Temperature  
Mean Temperature 68 °F -  
Max Temperature 73 °F - - ()
Min Temperature 64 °F - - ()
Cooling Degree Days 4    
Growing Degree Days 18 (Base 50)    
Moisture  
Dew Point 61 °F    
Average Humidity 77    
Maximum Humidity 94    
Minimum Humidity 61    
Precipitation  
Precipitation 0.00 in - - ()
Sea Level Pressure  
Sea Level Pressure 30.05 in    
Wind  
Wind Speed 10 mph ()    
Max Wind Speed 20 mph    
Max Gust Speed 29 mph    
Visibility 6.2 miles    
Events Rain    
T = Trace of Precipitation, MM = Missing Value Source: Averaged Metar Reports

Daily Weather History Graph

Daily Weather History Graph

Search for Another Location

Airport or City:

Trip Planner

Search our weather history database for the weather conditions in past years. The results will help you decide how hot, cold, wet, or windy it might be!

Date:

Astronomy

Dec. 03, 2011 Rise Set
Actual Time 4:47 AM SAST 6:42 PM SAST
Civil Twilight 4:20 AM SAST 7:09 PM SAST
Nautical Twilight 3:48 AM SAST 7:42 PM SAST
Astronomical Twilight 3:13 AM SAST 8:17 PM SAST
Moon 12:36 PM SAST (12/3) 12:12 AM SAST (12/3)
Length of Visible Light 14h 49m
Length of Day
13h 55m
First Quarter, 60% of the Moon is Illuminated
Dec 3
First Quarter
Dec 10
Full
Dec 18
Last Quarter
Dec 24
New
Jan 1
First Quarter

Hourly Weather History & Observations

Time (SAST) Temp. Dew Point Humidity Pressure Visibility Wind Dir Wind Speed Gust Speed Precip Events Conditions
12:00 AM 68.0 °F 64.4 °F 88% 29.98 in 6.2 mi WSW 8.1 mph - N/A   Mostly Cloudy
1:00 AM 66.2 °F 64.4 °F 94% 29.95 in 6.2 mi SSW 4.6 mph - N/A   Overcast
2:00 AM 66.2 °F 62.6 °F 88% 29.95 in 6.2 mi SSW 10.4 mph - N/A   Overcast
3:00 AM 66.2 °F 62.6 °F 88% 29.98 in 6.2 mi SSW 11.5 mph - N/A Rain Light Rain
4:00 AM 66.2 °F 62.6 °F 88% 29.98 in 6.2 mi WSW 6.9 mph - N/A   Overcast
4:33 AM 66.2 °F 62.6 °F 88% 29.98 in 5.6 mi South 13.8 mph - N/A Rain Light Rain
5:00 AM 64.4 °F 62.6 °F 94% 29.98 in 6.2 mi SSW 13.8 mph - N/A   Light Drizzle
5:13 AM 66.2 °F 62.6 °F 88% 30.01 in 6.2 mi SW 10.4 mph - N/A   Light Drizzle
6:00 AM 66.2 °F 62.6 °F 88% 30.01 in 6.2 mi SSW 8.1 mph - N/A   Overcast
7:00 AM 66.2 °F 60.8 °F 83% 30.04 in 6.2 mi SW 11.5 mph - N/A   Overcast
8:00 AM 68.0 °F 60.8 °F 78% 30.04 in 6.2 mi SW 17.3 mph - N/A   Mostly Cloudy
9:00 AM 69.8 °F 60.8 °F 73% 30.04 in 6.2 mi SSW 13.8 mph - N/A   Mostly Cloudy
10:00 AM 73.4 °F 59.0 °F 61% 30.06 in 6.2 mi SSW 15.0 mph - N/A   Mostly Cloudy
11:00 AM 73.4 °F 60.8 °F 65% 30.06 in 6.2 mi South 15.0 mph - N/A   Mostly Cloudy
12:00 PM 73.4 °F 62.6 °F 69% 30.06 in 6.2 mi South 19.6 mph - N/A   Scattered Clouds
12:52 PM 71.6 °F 59.0 °F 64% 30.06 in 6.2 mi South 17.3 mph 28.8 mph N/A   Scattered Clouds
1:00 PM 71.6 °F 59.0 °F 64% 30.06 in 6.2 mi South 17.3 mph 28.8 mph N/A   Scattered Clouds
1:48 PM 68.0 °F 60.8 °F 78% 30.06 in 6.2 mi South 16.1 mph - N/A   Mostly Cloudy
2:00 PM 68.0 °F 60.8 °F 78% 30.06 in 6.2 mi South 15.0 mph - N/A   Mostly Cloudy
3:00 PM 69.8 °F 60.8 °F 73% 30.06 in 6.2 mi SSW 16.1 mph 27.6 mph N/A   Mostly Cloudy
4:00 PM 69.8 °F 59.0 °F 68% 30.06 in 6.2 mi South 15.0 mph - N/A   Mostly Cloudy
5:00 PM 69.8 °F 59.0 °F 68% 30.06 in 6.2 mi SSW 13.8 mph - N/A   Partly Cloudy
6:00 PM 69.8 °F 57.2 °F 64% 30.09 in 6.2 mi SSW 9.2 mph - N/A   Mostly Cloudy
7:00 PM 68.0 °F 57.2 °F 68% 30.12 in 6.2 mi SSW 9.2 mph - N/A   Mostly Cloudy
8:00 PM 68.0 °F 57.2 °F 68% 30.12 in 6.2 mi SSW 8.1 mph - N/A   Mostly Cloudy
9:00 PM 68.0 °F 57.2 °F 68% 30.15 in 6.2 mi WSW 8.1 mph - N/A   Mostly Cloudy
10:00 PM 68.0 °F 59.0 °F 73% 30.15 in 6.2 mi SW 9.2 mph - N/A   Mostly Cloudy
11:00 PM 66.2 °F 59.0 °F 78% 30.18 in 6.2 mi WSW 8.1 mph - N/A   Mostly Cloudy